When you browse on this site, cookies collect data to enhance your experience and personalize the content and advertising you see.
Visit our Privacy Policy to learn more. By continuing to use the site, you agree to this use of cookies and data.
  • In Schweiz
  • Länderverzeichnis
  • Für 7 Tage
  • Wassertemperatur
  • Wetterkarte
  • Widgets
  • user-avatar
    Anmelden

    Stündliche Wetter Dijon

    Heute, 28 März, Samstag

    Zeit Temperatur Niederschläge Wind Luftdruck Luftfeuchtigkeit
    00:00 +6°C° 0 mm 1 m/S 737 mmHg 90%
    01:00 +5°C° 0 mm 1 m/S 737 mmHg 90%
    02:00 +5°C° 0 mm 1 m/S 737 mmHg 90%
    03:00 +5°C° 0 mm 1 m/S 737 mmHg 91%
    04:00 +5°C° 0 mm 1 m/S 737 mmHg 91%
    05:00 +4°C° 0 mm 1 m/S 737 mmHg 91%
    06:00 +5°C° 0 mm 1 m/S 738 mmHg 92%
    07:00 +7°C° 0 mm 1 m/S 738 mmHg 85%
    08:00 +9°C° 0 mm 1 m/S 738 mmHg 78%
    09:00 +11°C° 0 mm 1 m/S 738 mmHg 72%
    10:00 +12°C° 0 mm 1 m/S 738 mmHg 70%
    11:00 +13°C° 0 mm 2 m/S 737 mmHg 69%
    12:00 +14°C° 0 mm 3 m/S 737 mmHg 66%
    13:00 +14°C° 0.1 mm 3 m/S 737 mmHg 67%
    14:00 +14°C° 0.1 mm 4 m/S 737 mmHg 69%
    15:00 +15°C° 0.1 mm 4 m/S 737 mmHg 70%
    16:00 +13°C° 0.3 mm 4 m/S 737 mmHg 76%
    17:00 +12°C° 0.3 mm 3 m/S 737 mmHg 82%
    18:00 +11°C° 0.3 mm 3 m/S 737 mmHg 88%
    19:00 +10°C° 0.1 mm 3 m/S 737 mmHg 89%
    20:00 +10°C° 0.1 mm 3 m/S 737 mmHg 89%
    21:00 +9°C° 0.1 mm 3 m/S 738 mmHg 90%
    22:00 +8°C° 0 mm 3 m/S 738 mmHg 90%
    23:00 +8°C° 0 mm 3 m/S 738 mmHg 90%

    Morgen, 30 März, Montag

    Zeit Temperatur Niederschläge Wind Luftdruck Luftfeuchtigkeit
    00:00 -1°C° 0 mm 9 m/S 740 mmHg 78%
    01:00 -3°C° 0 mm 9 m/S 740 mmHg 78%
    02:00 -3°C° 0 mm 9 m/S 739 mmHg 77%
    03:00 -4°C° 0 mm 9 m/S 739 mmHg 76%
    04:00 -4°C° 0 mm 9 m/S 739 mmHg 75%
    05:00 -5°C° 0 mm 9 m/S 739 mmHg 73%
    06:00 -5°C° 0 mm 9 m/S 739 mmHg 72%
    07:00 -4°C° 0 mm 9 m/S 739 mmHg 65%
    08:00 -3°C° 0 mm 10 m/S 739 mmHg 58%
    09:00 0°C° 0 mm 10 m/S 739 mmHg 51%
    10:00 +1°C° 0 mm 10 m/S 739 mmHg 49%
    11:00 +2°C° 0 mm 10 m/S 739 mmHg 47%
    12:00 +3°C° 0 mm 10 m/S 739 mmHg 45%
    13:00 +3°C° 0 mm 10 m/S 738 mmHg 43%
    14:00 +5°C° 0 mm 10 m/S 738 mmHg 42%
    15:00 +5°C° 0 mm 9 m/S 738 mmHg 41%
    16:00 +2°C° 0 mm 9 m/S 738 mmHg 42%
    17:00 +1°C° 0 mm 8 m/S 738 mmHg 43%
    18:00 0°C° 0 mm 7 m/S 738 mmHg 45%
    19:00 -1°C° 0 mm 7 m/S 738 mmHg 44%
    20:00 -1°C° 0 mm 7 m/S 738 mmHg 44%
    21:00 -2°C° 0 mm 7 m/S 739 mmHg 44%
    22:00 -2°C° 0 mm 7 m/S 739 mmHg 45%
    23:00 -3°C° 0 mm 7 m/S 738 mmHg 46%

    übermorgen, 31 März, Dienstag

    Zeit Temperatur Niederschläge Wind Luftdruck Luftfeuchtigkeit
    00:00 -3°C° 0 mm 6 m/S 738 mmHg 47%
    01:00 -3°C° 0 mm 6 m/S 738 mmHg 48%
    02:00 -3°C° 0 mm 6 m/S 738 mmHg 49%
    03:00 -4°C° 0 mm 6 m/S 738 mmHg 49%
    04:00 -4°C° 0 mm 6 m/S 738 mmHg 49%
    05:00 -4°C° 0 mm 6 m/S 738 mmHg 48%
    06:00 -3°C° 0 mm 7 m/S 738 mmHg 47%
    07:00 -2°C° 0 mm 7 m/S 738 mmHg 45%
    08:00 0°C° 0 mm 8 m/S 738 mmHg 43%
    09:00 +2°C° 0 mm 9 m/S 738 mmHg 40%
    10:00 +3°C° 0 mm 9 m/S 738 mmHg 40%
    11:00 +5°C° 0 mm 8 m/S 739 mmHg 40%
    12:00 +6°C° 0 mm 8 m/S 739 mmHg 40%
    13:00 +6°C° 0 mm 8 m/S 738 mmHg 40%
    14:00 +6°C° 0 mm 7 m/S 738 mmHg 41%
    15:00 +6°C° 0 mm 7 m/S 738 mmHg 41%
    16:00 +5°C° 0 mm 6 m/S 738 mmHg 46%
    17:00 +3°C° 0 mm 6 m/S 738 mmHg 50%
    18:00 +2°C° 0 mm 5 m/S 738 mmHg 55%
    19:00 +1°C° 0 mm 5 m/S 739 mmHg 53%
    20:00 0°C° 0 mm 5 m/S 739 mmHg 52%
    21:00 -1°C° 0 mm 5 m/S 739 mmHg 50%
    22:00 -1°C° 0 mm 5 m/S 739 mmHg 51%
    23:00 -2°C° 0 mm 5 m/S 739 mmHg 52%

    31 März, Dienstag

    Zeit Temperatur Niederschläge Wind Luftdruck Luftfeuchtigkeit
    00:00 -3°C° 0 mm 6 m/S 738 mmHg 47%
    01:00 -3°C° 0 mm 6 m/S 738 mmHg 48%
    02:00 -3°C° 0 mm 6 m/S 738 mmHg 49%
    03:00 -4°C° 0 mm 6 m/S 738 mmHg 49%
    04:00 -4°C° 0 mm 6 m/S 738 mmHg 49%
    05:00 -4°C° 0 mm 6 m/S 738 mmHg 48%
    06:00 -3°C° 0 mm 7 m/S 738 mmHg 47%
    07:00 -2°C° 0 mm 7 m/S 738 mmHg 45%
    08:00 0°C° 0 mm 8 m/S 738 mmHg 43%
    09:00 +2°C° 0 mm 9 m/S 738 mmHg 40%
    10:00 +3°C° 0 mm 9 m/S 738 mmHg 40%
    11:00 +5°C° 0 mm 8 m/S 739 mmHg 40%
    12:00 +6°C° 0 mm 8 m/S 739 mmHg 40%
    13:00 +6°C° 0 mm 8 m/S 738 mmHg 40%
    14:00 +6°C° 0 mm 7 m/S 738 mmHg 41%
    15:00 +6°C° 0 mm 7 m/S 738 mmHg 41%
    16:00 +5°C° 0 mm 6 m/S 738 mmHg 46%
    17:00 +3°C° 0 mm 6 m/S 738 mmHg 50%
    18:00 +2°C° 0 mm 5 m/S 738 mmHg 55%
    19:00 +1°C° 0 mm 5 m/S 739 mmHg 53%
    20:00 0°C° 0 mm 5 m/S 739 mmHg 52%
    21:00 -1°C° 0 mm 5 m/S 739 mmHg 50%
    22:00 -1°C° 0 mm 5 m/S 739 mmHg 51%
    23:00 -2°C° 0 mm 5 m/S 739 mmHg 52%

    1 April, Mittwoch

    Zeit Temperatur Niederschläge Wind Luftdruck Luftfeuchtigkeit
    00:00 -4°C° 0 mm 5 m/S 739 mmHg 53%
    01:00 -4°C° 0 mm 5 m/S 739 mmHg 53%
    02:00 -4°C° 0 mm 5 m/S 739 mmHg 54%
    03:00 -5°C° 0 mm 5 m/S 739 mmHg 54%
    04:00 -5°C° 0 mm 5 m/S 739 mmHg 56%
    05:00 -4°C° 0 mm 4 m/S 739 mmHg 57%
    06:00 -4°C° 0 mm 4 m/S 739 mmHg 58%
    07:00 -2°C° 0 mm 4 m/S 739 mmHg 53%
    08:00 0°C° 0 mm 4 m/S 738 mmHg 48%
    09:00 +3°C° 0 mm 5 m/S 738 mmHg 43%
    10:00 +5°C° 0 mm 4 m/S 738 mmHg 42%
    11:00 +7°C° 0 mm 4 m/S 738 mmHg 42%
    12:00 +8°C° 0 mm 4 m/S 737 mmHg 41%
    13:00 +8°C° 0 mm 4 m/S 737 mmHg 43%
    14:00 +10°C° 0 mm 4 m/S 736 mmHg 44%
    15:00 +10°C° 0 mm 4 m/S 736 mmHg 46%
    16:00 +8°C° 0 mm 3 m/S 736 mmHg 54%
    17:00 +7°C° 0 mm 3 m/S 736 mmHg 62%
    18:00 +4°C° 0 mm 3 m/S 736 mmHg 71%
    19:00 +3°C° 0 mm 3 m/S 736 mmHg 72%
    20:00 +2°C° 0 mm 3 m/S 736 mmHg 74%
    21:00 +1°C° 0 mm 3 m/S 736 mmHg 75%
    22:00 0°C° 0 mm 3 m/S 736 mmHg 76%
    23:00 0°C° 0 mm 3 m/S 736 mmHg 76%

    2 April, Donnerstag

    Zeit Temperatur Niederschläge Wind Luftdruck Luftfeuchtigkeit
    00:00 -1°C° 0 mm 2 m/S 736 mmHg 77%
    01:00 -1°C° 0 mm 2 m/S 736 mmHg 77%
    02:00 -2°C° 0 mm 2 m/S 736 mmHg 78%
    03:00 -2°C° 0 mm 2 m/S 735 mmHg 78%
    04:00 -2°C° 0 mm 2 m/S 735 mmHg 77%
    05:00 -2°C° 0 mm 2 m/S 736 mmHg 75%
    06:00 -2°C° 0 mm 2 m/S 736 mmHg 74%
    07:00 +1°C° 0 mm 2 m/S 736 mmHg 67%
    08:00 +3°C° 0 mm 3 m/S 736 mmHg 61%
    09:00 +7°C° 0 mm 3 m/S 736 mmHg 55%
    10:00 +8°C° 0 mm 3 m/S 735 mmHg 53%
    11:00 +9°C° 0 mm 3 m/S 735 mmHg 51%
    12:00 +11°C° 0 mm 3 m/S 735 mmHg 48%
    13:00 +11°C° 0 mm 4 m/S 735 mmHg 51%
    14:00 +11°C° 0 mm 4 m/S 735 mmHg 53%
    15:00 +11°C° 0 mm 4 m/S 734 mmHg 55%
    16:00 +10°C° 0 mm 4 m/S 734 mmHg 62%
    17:00 +7°C° 0 mm 4 m/S 735 mmHg 69%
    18:00 +5°C° 0 mm 4 m/S 735 mmHg 76%
    19:00 +4°C° 0 mm 4 m/S 735 mmHg 79%
    20:00 +3°C° 0 mm 4 m/S 735 mmHg 83%
    21:00 +2°C° 0 mm 3 m/S 735 mmHg 86%
    22:00 +1°C° 0 mm 3 m/S 735 mmHg 87%
    23:00 0°C° 0 mm 3 m/S 736 mmHg 88%
    Mehr zeigen